Regional Weather Roundup
Issued by NWS

Home | Current Version | Previous Version | Text Only | Print | Product List | Glossary On
Versions: 1 2 3 4 5 6 7 8 9 10 11 12 13 14 15 16 17 18 19 20 21 22 23 24 25 26 27 28 29 30 31 32 33 34 35 36 37 38 39 40 41 42 43 44 45 46 47 48 49 50
000
ASUS42 KKEY 290610
RWRKEY

FLORIDA REGIONAL WEATHER ROUNDUP FOR THE FLORIDA KEYS
NATIONAL WEATHER SERVICE KEY WEST FLORIDA
100 AM EST MON DEC 29 2014

...SOUTH FLORIDA AND THE KEYS...

CITY           SKY/WX    TMP DP  RH WIND       PRES   REMARKS
FORT MYERS     CLEAR     66  65  96 SE3       30.11F
SW REGIONAL AP CLEAR     64  62  93 E3        30.12F
NAPLES         CLEAR     65  65 100 E3        30.12F
MIAMI          PTCLDY    72  69  90 CALM      30.13F
WEST KENDALL   CLEAR     68  66  93 CALM      30.13S FOG
HOMESTEAD      CLEAR     70  68  94 CALM      30.13S
MARATHON       CLEAR     76  72  87 E5        30.11F
BOCA CHICA NAS PTCLDY    74  71  91 E7        30.11F
KEY WEST INTL  PTCLDY    76  71  85 SE10      30.11F

...INTERNATIONAL WEATHER...

CITY           SKY/WX    TMP DP  RH WIND       PRES   REMARKS
NASSAU BAHAMAS PTCLDY    73  72  94 E5        30.16
CANCUN MEXICO  PTCLDY    77  73  88 SE6       30.06F
COZUMEL MEXICO CLEAR     70  70 100 CALM      30.06F

ADJACENT COASTAL WATERS...

STATION/POSITION TIME  SKY/WX   TEMP    WIND        PRES    WAVE
                                AIR SEA DIR/SP/G            HT/PER
                 (UTC)          (F)     (DEG/KT/KT) (MB)    (FT/S)
PULASKI SHOAL LI 0500            73      90/  7/  7 1019.7F
SAND KEY         0537            77     130/ 14/ 15 1019.5F
SOMBRERO KEY     0600            77     120/ 13/ 13 1020.4F
LONG KEY         0458            76 76  120/  7/  8 1020.8F
MOLASSES REEF    0600            77 78  120/  8/ 10 1019.9F
FOWEY ROCKS      NOT AVBL
Buoy 42080       NOT AVBL

$$



USA.gov is the U.S. government's official web portal to all federal, state and local government web resources and services.